www.pogodaiklimat.ru

Погода и климат >> Архив погоды >> Австралия >> Shark Bay Airport


ПОГОДА в Shark Bay Airport

  • Прогноз погоды в Shark Bay Airport
  • Монитор погоды в Shark Bay Airport
  • Климат города

АРХИВ ПОГОДЫ в Shark Bay Airport

Время (UTC), дата Ветер
(напр.,м/с)
 
Видим.   Явления Облачность Т
(С)
Тd
(С)
f
(%)
Тe
(С)
Тes
(С)
Комфортность P
(гПа)
Po
(гПа)
Тmin
(С)
Tmax
(С)
R
(мм)
R24
(мм)
S
(см)
19 10.07 Ю 2 н/о н/о +12.3 +9.7 84 +11 +11 1020.2 1016.1
21 10.07 В 2 н/о н/о +12.1 +10.3 89 +11 +11 1019.7 1015.6
22 10.07 СВ 2 н/о н/о +9.4 +7.5 88 +8 +8 1019.8 1015.7
00 11.07 В 3 н/о н/о +12.6 +11.5 93 +11 +11 1021.0 1016.9
01 11.07 СВ 3 н/о н/о +18.2 +15.5 84 +19 +19 1021.6 1017.5 +8.8
03 11.07 В 3 н/о н/о +21.8 +11.5 52 +24 +24 комфорт 1021.2 1017.1
04 11.07 В 5 н/о н/о +22.0 +11.1 50 +24 +24 комфорт 1020.6 1016.5
06 11.07 Ю 3 н/о н/о +22.4 +10.2 46 +24 +24 комфорт 1019.1 1015.0
07 11.07 ЮВ 2 н/о н/о +22.8 +10.6 46 +25 +25 комфорт 1018.8 1014.7
09 11.07 ЮЗ 5 н/о н/о +20.1 +10.2 53 +21 +21 комфорт 1018.5 1014.4
10 11.07 Ю 4 н/о н/о +17.8 +9.4 58 +18 +18 1018.8 1014.7
12 11.07 Ю 4 н/о н/о +15.6 +11.2 75 +15 +15 1019.7 1015.6
13 11.07 Ю 4 н/о н/о +14.6 +10.6 77 +14 +14 1019.9 1015.8 +22.9
15 11.07 Ю 4 н/о н/о +13.0 +9.8 81 +11 +11 1020.1 1016.0
16 11.07 ЮВ 4 н/о н/о +12.3 +9.7 84 +10 +10 1019.9 1015.8
18 11.07 ЮВ 4 н/о н/о +13.3 +9.7 79 +12 +12 1018.9 1014.8
19 11.07 В 3 н/о н/о +12.5 +9.3 81 +11 +11 1018.3 1014.2
21 11.07 В 3 н/о н/о +9.8 +7.7 87 +7 +7 1017.9 1013.8
22 11.07 В 3 н/о н/о +9.4 +7.7 89 +7 +7 1018.2 1014.1
00 12.07 В 3 н/о н/о +11.9 +11.1 95 +10 +10 1019.3 1015.2
01 12.07 СВ 4 н/о н/о +16.2 +13.9 86 +15 +15 1019.5 1015.4 +9.4
03 12.07 СВ 4 н/о н/о +20.6 +10.1 51 +22 +22 комфорт 1019.5 1015.4
04 12.07 В 4 н/о н/о +21.9 +9.8 46 +23 +23 комфорт 1018.8 1014.7
06 12.07 З 4 н/о н/о +23.1 +7.6 37 +24 +24 комфорт 1017.0 1012.9
07 12.07 З 4 н/о н/о +22.8 +6.6 35 +23 +23 комфорт 1016.8 1012.7
09 12.07 З 4 н/о н/о +20.5 +9.4 49 +22 +22 комфорт 1017.2 1013.1
10 12.07 З 2 н/о н/о +17.6 +10.2 62 +18 +18 1017.5 1013.4
12 12.07 СВ 2 н/о н/о +14.9 +10.1 73 +15 +15 1018.2 1014.1
13 12.07 С 1 н/о н/о +13.7 +8.5 71 +14 +14 1018.6 1014.5 +23.9
15 12.07 СВ 2 н/о н/о +12.7 +8.8 77 +12 +12 1018.8 1014.7
16 12.07 С 2 н/о н/о +11.9 +8.0 77 +11 +11 1018.5 1014.4
18 12.07 С 2 н/о н/о +10.9 +7.4 79 +10 +10 1018.3 1014.2
19 12.07 СЗ 2 н/о н/о +10.5 +7.4 81 +10 +10 1017.9 1013.8
21 12.07 С 3 н/о н/о +10.3 +7.7 84 +8 +8 1017.5 1013.4
22 12.07 С 2 н/о н/о +9.9 +7.5 85 +8 +8 1017.9 1013.8
00 13.07 С 2 н/о н/о +13.3 +11.5 89 +13 +13 1018.9 1014.8
01 13.07 С 3 н/о н/о +18.9 +14.0 73 +20 +20 1019.3 1015.2 +9.5
03 13.07 З 3 н/о н/о +15.8 +12.9 83 +16 +16 1019.2 1015.1
04 13.07 З 4 н/о н/о +23.3 +12.6 51 +26 +26 жарко 1018.7 1014.6
06 13.07 ЮВ 3 н/о н/о +17.5 +15.5 88 +17 +17 1018.2 1014.1
07 13.07 Ю 3 н/о н/о +17.7 +14.8 83 +18 +18 1017.9 1013.8
09 13.07 Ю 2 н/о н/о +18.0 +14.7 81 +19 +19 1017.7 1013.6
10 13.07 Ю 3 н/о {туман} н/о +17.4 +14.3 82 +17 +17 1018.2 1014.1
12 13.07 ЮЗ 2 н/о н/о +14.8 +12.3 85 +15 +15 1019.1 1015.0
13 13.07 Ю 1 н/о {туман} н/о +14.7 +12.7 88 +15 +15 1019.4 1015.3 +23.8
15 13.07 ЮЗ 3 н/о н/о +13.8 +12.5 92 +13 +13 1019.4 1015.3
16 13.07 ЮЗ 2 н/о н/о +12.6 +12.0 96 +12 +12 1019.0 1014.9
18 13.07 штиль 0 н/о н/о +11.2 +11.2 100 +10 +10 1018.3 1014.2
19 13.07 штиль 0 н/о н/о +10.3 +11 +11 1018.1 1014.0
21 13.07 штиль 0 н/о н/о +11.3 1017.7 1013.6
22 13.07 СЗ 3 н/о н/о +12.6 +12 +12 1017.7 1013.6
00 14.07 В 2 н/о н/о +13.2 1018.5 1014.4
01 14.07 В 3 н/о н/о +16.1 +16 +16 1018.9 1014.8 +8.6
03 14.07 З 2 н/о н/о +20.0 +13.7 67 +23 +23 комфорт 1018.9 1014.8
04 14.07 ЮЗ 5 н/о {туман} н/о +19.5 +12.8 65 +21 +21 комфорт 1018.5 1014.4
06 14.07 З 4 н/о н/о +21.3 +11.1 52 +23 +23 комфорт 1017.4 1013.3
07 14.07 ЮЗ 6 н/о {туман} н/о +19.9 +10.0 53 +21 +21 комфорт 1017.1 1013.0
09 14.07 ЮЗ 4 н/о н/о +18.0 +12.7 71 +18 +18 1017.0 1012.9
10 14.07 ЮЗ 5 н/о н/о +17.5 +12.4 72 +17 +17 1017.3 1013.2
12 14.07 штиль 0 н/о н/о +15.3 +12.1 81 +15 +15 1018.1 1014.0
13 14.07 штиль 0 н/о н/о +13.1 +10.1 82 +13 +13 1018.5 1014.4 +21.6
15 14.07 ЮЗ 5 н/о н/о +17.4 +11.2 67 +17 +17 1018.8 1014.7
16 14.07 ЮЗ 4 н/о н/о +16.3 +10.2 67 +16 +16 1018.7 1014.6
18 14.07 ЮЗ 2 н/о н/о +13.5 +10.5 82 +13 +13 1018.1 1014.0
19 14.07 Ю 6 н/о н/о +15.8 +12.7 82 +14 +14 1018.0 1013.9
21 14.07 Ю 2 н/о н/о +14.7 +13.4 92 +14 +14 1018.0 1013.9
22 14.07 ЮВ 3 н/о н/о +14.5 +14.3 99 +14 +14 1018.3 1014.2
00 15.07 Ю 5 н/о н/о +14.8 +14.6 99 +13 +13 1020.0 1015.9
01 15.07 ЮВ 3 н/о {туман} н/о +16.3 +12.5 78 +16 +16 1020.8 1016.7 +13.0
03 15.07 Ю 5 н/о н/о +18.0 +9.1 56 +18 +18 1021.3 1017.2
04 15.07 ЮВ 6 н/о н/о +18.0 +8.8 55 +18 +18 1020.9 1016.8
06 15.07 Ю 5 н/о н/о +19.7 +7.8 46 +20 +20 1019.7 1015.6
07 15.07 Ю 5 н/о н/о +19.7 +8.1 47 +21 +21 комфорт 1019.5 1015.4
09 15.07 Ю 5 н/о н/о +17.5 +7.0 50 +17 +17 1019.6 1015.5
10 15.07 Ю 4 н/о н/о +15.3 +7.8 61 +14 +14 1019.6 1015.5
12 15.07 Ю 4 н/о н/о +13.4 +8.9 74 +12 +12 1020.6 1016.5
13 15.07 Ю 4 н/о н/о +12.3 +8.6 78 +11 +11 1020.8 1016.7 +20.0
15 15.07 ЮВ 3 н/о н/о +10.9 +8.5 85 +9 +9 1020.4 1016.3
16 15.07 ЮВ 4 н/о н/о +11.2 +9.1 87 +9 +9 1020.1 1016.0
18 15.07 В 2 н/о н/о +10.5 +8.4 87 +9 +9 1019.3 1015.2
19 15.07 ЮВ 3 н/о н/о +10.6 +8.7 88 +8 +8 1019.1 1015.0
21 15.07 В 4 н/о н/о +11.1 +9.7 91 +9 +9 1018.3 1014.2
22 15.07 СВ 3 н/о н/о +11.3 +10.0 92 +10 +10 1018.3 1014.2
00 16.07 СВ 2 н/о н/о +12.7 +10.8 88 +12 +12 1019.7 1015.6
01 16.07 СВ 2 н/о н/о +15.9 +12.3 79 +16 +16 1020.0 1015.9 +10.0
03 16.07 СВ 4 н/о н/о +19.8 +9.4 51 +21 +21 комфорт 1020.3 1016.2
04 16.07 Ю 2 н/о н/о +19.3 +8.6 50 +21 +21 комфорт 1019.9 1015.8
06 16.07 Ю 2 н/о н/о +19.6 +10.0 54 +22 +22 комфорт 1018.4 1014.3
07 16.07 ЮЗ 3 н/о н/о +20.2 +9.7 51 +22 +22 комфорт 1017.9 1013.8
09 16.07 З 3 н/о н/о +18.5 +10.1 58 +19 +19 1017.7 1013.6
10 16.07 З 2 н/о н/о +16.3 +10.2 67 +17 +17 1017.8 1013.7
12 16.07 штиль 0 н/о н/о +14.9 +10.3 74 +15 +15 1018.6 1014.5
13 16.07 СВ 1 н/о н/о +13.9 +10.1 78 +14 +14 1018.7 1014.6 +21.3
15 16.07 СВ 3 н/о н/о +13.5 +10.1 80 +13 +13 1018.6 1014.5
16 16.07 СВ 1 н/о н/о +13.3 +9.9 80 +13 +13 1018.2 1014.1
18 16.07 ЮВ 5 н/о н/о +15.0 +13.5 91 +13 +13 1018.3 1014.2
19 16.07 В 3 н/о в посл. час дождь {туман} н/о +14.5 +14.2 98 +13 +13 1018.1 1014.0
21 16.07 ЮВ 3 н/о н/о +12.4 1017.5 1013.4
22 16.07 В 3 н/о н/о +12.1 +11 +11 1018.2 1014.1
00 17.07 В 4 н/о н/о +12.7 1018.9 1014.8
01 17.07 В 4 н/о н/о +16.2 +16 +16 1019.5 1015.4 +11.7
03 17.07 В 5 н/о н/о +19.3 +10.8 58 +20 +20 1019.5 1015.4
04 17.07 В 5 н/о н/о +20.0 +9.9 52 +21 +21 комфорт 1018.8 1014.7
06 17.07 Ю 3 н/о н/о +20.5 +8.8 47 +22 +22 комфорт 1017.5 1013.4
07 17.07 ЮВ 3 н/о {туман} н/о +20.8 +9.1 47 +23 +23 комфорт 1016.9 1012.8
09 17.07 ЮЗ 6 н/о н/о +18.6 +9.9 57 +19 +19 1016.7 1012.6
10 17.07 Ю 4 н/о н/о +16.6 +9.8 64 +16 +16 1017.0 1012.9
12 17.07 Ю 4 н/о н/о +15.7 +11.5 76 +15 +15 1017.6 1013.5
13 17.07 Ю 5 н/о н/о +15.3 +10.7 74 +14 +14 1017.9 1013.8 +21.4
15 17.07 Ю 4 н/о н/о +13.6 +10.8 83 +12 +12 1017.8 1013.7
16 17.07 Ю 4 н/о н/о +12.5 +10.2 86 +11 +11 1017.6 1013.5
18 17.07 ЮВ 4 н/о н/о +12.9 +11.3 90 +11 +11 1017.6 1013.5

 

Местоположение метеостанции Shark Bay Airport (Западная Австралия, Австралия): широта -25.90 долгота 113.58 высота над уровнем моря 34 м.

В архиве по умолчанию представлена погода в Shark Bay Airport за последнюю неделю. Архивные данные за месяц целиком и за предыдущие месяцы, начиная с января 2011 года, Вы можете получить, выбрав интересующий диапазон дат из раскрывающегося списка и нажав кнопку "Ввод!".


*Определитесь, кто Вы:
робот инопланетянин человек

Внимание! Время в таблицах - всемирное. Для получения местного времени необходимо прибавить поправку, которая в Shark Bay Airport равна 8 ч.

Смотрите также архив погоды в соседних городах и на ближайших метеорологических станциях:

Погода в Carnarvon Airport (Западная Австралия, Австралия) (114 км)
Погода в Geraldton Airport (Западная Австралия, Австралия) (341 км)
Погода в Learmonth Airport (Западная Австралия, Австралия) (411 км)
Погода в Morawa Airport (Западная Австралия, Австралия) (439 км)
Погода в Mount Magnet Aero (Западная Австралия, Австралия) (488 км)
Погода в Onslow Airport (Западная Австралия, Австралия) (496 км)
Погода в Meekatharra Airport (Западная Австралия, Австралия) (502 км)
Погода в Thevenard Island (Западная Австралия, Австралия) (516 км)
Погода в Paraburdoo Aero (Западная Австралия, Австралия) (520 км)
Погода в Rottnest Island Lighthouse (Западная Австралия, Австралия) (529 км)

Пояснения к столбцам:

Ветер - указаны скорость ветра в м/с - средняя за 10 мин, порывы в срок и между сроками (в фигурных скобках) и направление, откуда дует ветер: С - северный, СВ - северо-восточный, В - восточный, ЮВ - юго-восточный, Ю - южный, ЮЗ - юго-западный, З - западный, СЗ - северо-западный.
Видимость - горизонтальная дальность видимости в метрах или километрах. При видимости от 1 до 10 км при отсутствии осадков обычно наблюдается дымка, при ухудшении видимости до 1 км и менее - туман. В сухую погоду видимость может ухудшаться дымом, пылью или мглою.
Явления - указаны атмосферные явления, наблюдавшиеся в срок или в последний час перед сроком; фигурными скобками обозначены явления, наблюдавшиеся между сроками (за 1-3 часа до срока); квадратными скобками обозначены град или гололедные отложения с указанием их диаметра в мм.
Облачность - указаны через наклонную черту общая и нижняя облачность в баллах и высота нижней границы облаков в метрах; квадратными скобками обозначены формы облаков: Ci - перистые, Cs - перисто-слоистые, Cc - перисто-кучевые, Ac - высококучевые, As - высокослоистые, Sc - слоисто-кучевые, Ns - слоисто-дождевые, Cu - кучевые, Cb - кучево-дождевые. Подробнее классификацию облаков см. в Атласе облаков (PDF).
T - Температура воздуха - температура, измеренная на высоте 2 м над землей.
Td - Температура точки росы - температура, при понижении до которой содержащийся в воздухе водяной пар достигнет насыщения.
f - Относительная влажность воздуха - влажноcть воздуха, измеренная на высоте 2 м над землей.
Te - Эффективная температура - температура, которую ощущает одетый по сезону человек в тени. Характеристика душности погоды. При расчете учитывается влияние влажности воздуха и скорости ветра на теплоощущения человека.
Tes - Эффективная температура на солнце - температура, которую ощущает человек, с поправкой на солнечный нагрев. Характеристика знойности погоды. Зависит от высоты солнца над горизонтом, облачности и скорости ветра. Ночью, в пасмурную погоду, а также при ветре 12 м/с и более поправка равна нулю.
P - Атмосферное давление - приведенное к уровню моря атмосферное давление.
Po - Атмосферное давление - измеренное на уровне метеостанции атмосферное давление.
Tmin - Минимальная температура - минимум температуры воздуха на высоте 2 м над землей.
Tmax - Максимальная температура - максимум температуры воздуха на высоте 2 м над землей.
R - Количество осадков - Количество выпавших осадков за период времени, мм. При наведении курсора мыши на число - период времени, за который выпало указанное количество осадков.
R24 - Количество осадков - Количество выпавших осадков за 24 часа, мм.
S - Снежный покров - Высота снежного покрова, см. При наведении курсора мыши на число - состояние снежного покрова и степень покрытия местности в баллах.